CZ-6A DEB, 54513

Orbit data source: Space-Track

CZ-6A DEB, 54513 is space debris in SSO originally from a launch on Fri, 11 Nov 2022 UTC launched from the Taiyaun Space Center, China (TSC). Debris objects in space refer to the collection of defunct objects orbiting the Earth. Examples of debris include non-operational satellites, rocket bodies, and fragments generated from explosions, collisions, or faulty payload assembly.

Loading next visibility...
Identifier
54513, 2022-151JR
Orbit
SSO
Country
Flag of CNCN / PRC
Related business
Manufacturer
SAST
Mission
Spacecraft
Bus & Motor
Unknown
Mass
Unknown
Launch date (UTC)
2022-11-11 (3 years ago)
Launch vehicle
Unknown
Launch site
Taiyaun Space Center, China (TSC)
Object type
Payload
Rocket body
Debris
Shape & HBR
Unknown shape, 0.1 m
Radar Cross Section
Small (<0.1 m²)

Expand to show TLE details & history
Last TLE update: 10 hours ago

TLE from 10 hours ago
0 CZ-6A DEB
1 54513U 22151JR  25353.99515766  .00000237  00000-0  77652-4 0  9998
2 54513  98.4866   3.8496 0149890 156.8643 203.9388 14.41128901162840
Epoch: 2025-12-19T23:53Z
TLE epoch observation values (Epoch: 2025-12-19T23:53:01.621Z)
Latitude
-0.00008°
Longitude
-83.23546°
Altitude
855.72 km
Speed
7.374 km/s
True Right ascension
00h 15m 23s
True Declination
0° 00' 00"
Sunlit
Object was in daylight at epoch
Visualization orbit readout
Latitude
Unknown
Longitude
Unknown
Altitude
Unknown
Speed
Unknown
Apparent Right ascension
Unknown
Apparent Declination
Unknown
Sunlit
N/A
Visualization observer readout
Local Sidereal Time
08:34:01
Azimuth
Unknown
Elevation
Unknown
Doppler factor
Unknown
Orbital elements
Apogee altitude
858.762 km
Perigee altitude
645.018 km
Semi-major axis
7,130.027 km
Eccentricity
0.01499
Inclination
98.4866°
RAAN
3.8496°
Arg. of periapsis
156.8643°
True anomaly
203.25362°
Mean anomaly
203.9388°
Eccentric anomaly
203.59505°
Mean motion
3.60501 °/min
Orbital period
99.86 mins
BSTAR
0.000077652
Loading maneuver chart data...
Computing Atmospheric mass density...
Loading historical data...
Loading historical data...
Loading historical data...
Loading historical data...
Loading historical data...
Loading historical data...
Loading historical data...

Documentation

Showing up to 5 results
|